Flag for Portugal Weather past 2 weeks in Porto, Portugal

Now
70 °F

Partly sunny.


Feels Like: 70 °F
Forecast: 61 / 72 °F
Wind: 7 mph from Southwest

Location: Porto / Pedras Rubras

Current Time: Sep 2, 2014 at 7:55:21 PM

Latest Report: Sep 2, 2014 at 7:00 PM


Visibility: 4 mi

Pressure: 29.89 "Hg

Humidity: 83%

Dew point: 64 °F

Location of PortoLocation

Historic Weather in Porto — Graph

°F

Porto temperature yesterday

Maximum temperature yesterday: 79 °F (at 12:30 PM)
Minimum temperature yesterday: 57 °F (at 7:00 AM)
Average temperature yesterday: 68 °F

Past Weeks' High & Low Weather Summary

 TemperatureHumidityPressure
High79 °F (Sep 1, 12:30 PM)100% (Aug 18, 10:00 PM)30.12 "Hg (Aug 18, 10:00 PM)
Low50 °F (Aug 24, 6:00 AM)54% (Aug 30, 5:30 PM)29.83 "Hg (Sep 2, 5:00 AM)
Average65 °F87%30.03 "Hg
* Reported Aug 18 6:00 PM — Sep 2 6:30 PM, Porto, Weather by CustomWeather, © 2014

Note: Actual official high and low records may vary slightly from our data, if they occured in-between our weather recording intervals... More about our weather records

Advertising

Porto weather history for previous 24 hours

 ConditionsComfort  
Time TempWeatherWind HumidityBarometerVisibility
6:30 PM
Sep 2
70 °FBroken clouds.8 mph88%29.89 "Hg4 mi
6:00 PM70 °FPartly sunny.8 mph83%29.89 "Hg6 mi
5:30 PM72 °FPartly sunny.7 mph78%29.89 "Hg5 mi
5:00 PM72 °FPassing clouds.9 mph78%29.89 "HgN/A
4:30 PM72 °FPassing clouds.9 mph78%29.89 "HgN/A
4:00 PM73 °FPassing clouds.9 mph74%29.89 "HgN/A
3:30 PM72 °FScattered clouds.9 mph78%29.89 "HgN/A
3:00 PM72 °FScattered clouds.12 mph78%29.89 "HgN/A
2:49 PM73 °FScattered clouds.12 mph78%29.89 "HgN/A
2:00 PM72 °FPartly sunny.12 mph78%29.89 "HgN/A
1:30 PM73 °FScattered clouds.9 mph74%29.89 "HgN/A
1:00 PM73 °FScattered clouds.9 mph74%29.89 "HgN/A
12:30 PM72 °FPassing clouds.9 mph83%29.89 "HgN/A
12:00 PM72 °FPassing clouds.10 mph78%29.92 "HgN/A
11:30 AM72 °FPassing clouds.10 mph73%29.89 "HgN/A
11:00 AM70 °FPassing clouds.12 mph78%29.92 "HgN/A
10:30 AM70 °FPassing clouds.13 mph83%29.89 "HgN/A
10:00 AM68 °FBroken clouds.13 mph88%29.89 "Hg6 mi
9:30 AM66 °FScattered clouds.12 mph94%29.89 "Hg4 mi
9:00 AM68 °FScattered clouds.10 mph88%29.89 "Hg4 mi
8:30 AM66 °FFog.9 mph94%29.86 "Hg3 mi
8:00 AM64 °FFog.8 mph100%29.86 "Hg2 mi
7:30 AM63 °FFog.6 mph94%29.86 "Hg2 mi
7:00 AM63 °FClear.7 mph88%29.86 "Hg4 mi
6:30 AM63 °FClear.6 mph88%29.83 "Hg10 mi
6:00 AM66 °FPassing clouds.3 mph88%29.83 "HgN/A
5:30 AM64 °FClear.2 mph88%29.83 "Hg10 mi
5:00 AM63 °FClear.2 mph94%29.83 "Hg10 mi
4:30 AM63 °FClear.1 mph94%29.86 "Hg6 mi
4:00 AM63 °FClear.1 mph94%29.86 "Hg4 mi
3:30 AM61 °FClear.2 mph100%29.86 "Hg4 mi
3:00 AM61 °FClear.2 mph100%29.89 "Hg4 mi
2:30 AM63 °FClear.No wind100%29.89 "Hg4 mi
2:00 AM63 °FClear.1 mph94%29.89 "Hg5 mi
1:30 AM63 °FClear.No wind94%29.89 "Hg4 mi
1:00 AM63 °FClear.1 mph100%29.89 "Hg5 mi
12:30 AM63 °FClear.2 mph94%29.92 "Hg4 mi
12:00 AM63 °FClear.No wind94%29.92 "Hg4 mi
11:30 PM
Sep 1
63 °FClear.No wind100%29.92 "Hg5 mi
11:00 PM64 °FClear.1 mph94%29.92 "Hg5 mi
10:30 PM64 °FClear.1 mph88%29.92 "Hg5 mi
10:00 PM64 °FClear.1 mph94%29.92 "Hg5 mi
9:00 PM66 °FClear.1 mph88%29.92 "Hg6 mi
8:30 PM68 °FClear.3 mph88%29.92 "Hg4 mi
8:00 PM70 °FSunny.2 mph83%29.92 "Hg10 mi
7:30 PM70 °FSunny.3 mph83%29.92 "Hg10 mi
7:00 PM72 °FPassing clouds.3 mph78%29.92 "HgN/A
Weather by CustomWeather, © 2014

See weather overviewHow to use our weather pages